EW7617 Weather Reports


time (UTC)temp
F
wind
direction
speed
knots
gust
knots
rain 1hr
in
rain 24hr
in
rain mn
in
humidity
%
barometer
mb
20260502160104 55 283 3.5 7.8 0.00 0.00 0.00 36 1018.9
20260502151553 53 229 2.6 5.2 0.00 0.00 0.00 41 1019.1
20260502123008 37 219 0.0 0.9 0.00 0.00 0.00 66 1019.9
20260502121507 36 222 0.0 0.9 0.00 0.00 0.00 66 1019.9
20260502114505 35 195 0.0 1.7 0.00 0.00 0.00 67 1019.9
20260502113004 35 174 0.0 0.0 0.00 0.00 0.00 67 1019.8
20260502111503 35 207 0.0 0.9 0.00 0.00 0.00 67 1019.8
20260502110006 35 202 0.0 0.9 0.00 0.00 0.00 66 1019.8
20260502104502 35 217 0.0 1.7 0.00 0.00 0.00 66 1019.8
20260502103002 35 210 0.0 0.9 0.00 0.00 0.00 66 1019.8
20260502101702 36 214 0.0 0.9 0.00 0.00 0.00 66 1019.7
20260502070054 35 355 0.0 0.0 0.00 0.00 0.00 70 1019.8
20260502064548 35 355 0.0 0.0 0.00 0.00 0.00 70 1019.8
20260502063045 35 355 0.0 0.0 0.00 0.00 0.00 71 1019.8
20260502061544 36 355 0.0 0.0 0.00 0.00 0.00 69 1019.8
20260502060044 36 355 0.0 0.0 0.00 0.00 0.00 69 1019.8
20260502054541 36 355 0.0 0.0 0.00 0.00 0.00 69 1019.9
20260502053038 36 355 0.0 0.0 0.00 0.00 0.00 67 1019.9
20260502051535 37 355 0.0 0.0 0.00 0.00 0.00 65 1019.8
20260502050036 38 355 0.0 0.0 0.00 0.00 0.00 64 1019.8
20260502044532 38 355 0.0 0.0 0.00 0.00 0.00 64 1019.6
20260502043031 39 355 0.0 0.0 0.00 0.00 0.00 64 1019.6
20260502041534 39 355 0.0 0.0 0.00 0.00 0.00 63 1019.5
20260502040030 39 355 0.0 0.0 0.00 0.00 0.00 61 1019.5
20260502034537 39 355 0.0 0.0 0.00 0.00 0.00 61 1019.4
20260502033031 40 355 0.0 0.0 0.00 0.00 0.00 60 1019.5
20260502031528 40 355 0.0 0.0 0.00 0.00 0.00 59 1019.5
20260502030029 41 355 0.0 0.0 0.00 0.00 0.00 56 1019.4
20260502024527 41 355 0.0 0.0 0.00 0.00 0.00 56 1019.3
20260502023025 42 355 0.0 0.0 0.00 0.00 0.00 54 1019.1
20260502021524 43 355 0.0 0.0 0.00 0.00 0.00 53 1019.0
20260502020022 44 355 0.0 1.7 0.00 0.00 0.00 51 1018.8
20260502014544 46 323 0.0 0.9 0.00 0.00 0.00 49 1018.7
20260502013020 47 322 0.0 2.6 0.00 0.00 0.00 45 1018.5
20260502011520 48 335 0.0 3.5 0.00 0.00 0.00 42 1018.4
20260502010019 49 294 0.9 4.3 0.00 0.00 0.00 40 1018.3
20260502004519 50 327 1.7 6.1 0.00 0.00 0.00 40 1018.2
20260502003018 52 93 2.6 5.2 0.00 0.00 0.00 37 1018.0
20260502001520 53 282 1.7 6.1 0.00 0.00 0.00 36 1018.1
20260502000037 53 271 1.7 8.7 0.00 0.00 0.00 36 1017.9
20260501234516 53 271 1.7 5.2 0.00 0.00 0.00 37 1017.8
20260501233016 53 82 0.9 5.2 0.00 0.00 0.00 37 1017.9
20260501231519 52 86 2.6 6.1 0.00 0.00 0.00 38 1017.9
20260501230016 54 122 3.5 8.7 0.00 0.00 0.00 35 1017.8
20260501224511 55 354 1.7 5.2 0.00 0.00 0.00 36 1017.7
20260501223008 52 322 1.7 7.0 0.00 0.00 0.00 39 1017.8
20260501221517 52 343 1.7 6.1 0.00 0.00 0.00 40 1017.8
20260501220012 52 337 4.3 7.8 0.00 0.00 0.00 37 1017.7
20260501214509 51 95 1.7 7.0 0.00 0.00 0.00 41 1017.8
20260501213006 52 324 2.6 6.1 0.00 0.00 0.00 40 1017.8
20260501211608 53 8 2.6 6.1 0.00 0.00 0.00 39 1017.9
20260501210005 51 319 1.7 4.3 0.00 0.00 0.00 40 1018.0
20260501204502 51 194 2.6 7.8 0.00 0.00 0.00 39 1018.0
20260501203001 51 335 1.7 6.1 0.00 0.00 0.00 40 1018.2
20260501201501 52 328 0.9 7.0 0.00 0.00 0.00 43 1018.2
20260501200100 51 317 0.9 7.8 0.00 0.00 0.00 40 1018.2
20260501194559 51 332 1.7 7.0 0.00 0.00 0.00 41 1018.3
20260501193102 50 46 4.3 7.8 0.00 0.00 0.00 40 1018.4
20260501191558 50 314 3.5 11.3 0.00 0.00 0.00 43 1018.4
20260501190056 50 348 1.7 5.2 0.00 0.00 0.00 48 1018.3
20260501184556 49 319 1.7 6.1 0.00 0.00 0.00 46 1018.4
20260501183056 48 29 1.7 5.2 0.00 0.00 0.00 48 1018.4
20260501181552 48 39 0.9 7.0 0.00 0.00 0.00 50 1018.5
20260501180054 48 314 3.5 7.0 0.00 0.00 0.00 47 1018.5
20260501174551 47 4 2.6 7.0 0.00 0.00 0.00 47 1018.6
20260501173050 49 349 1.7 7.0 0.00 0.00 0.00 46 1018.5
20260501171553 48 344 1.7 7.0 0.00 0.00 0.00 51 1018.5
20260501170053 46 13 1.7 13.0 0.00 0.00 0.00 49 1018.5
20260501164546 48 1 3.5 9.6 0.00 0.00 0.00 49 1018.3
20260501163045 48 248 2.6 8.7 0.00 0.00 0.00 48 1018.3
20260501161541 47 351 1.7 6.1 0.00 0.00 0.00 51 1018.2